Location: Waldport
(44.4270°N, 124.0680°W)
Time: 17:48:50
(UTC-08:00)

Amateur Radio Satellites - All Passes

Search period start: 22 November 2017 17:18
Search period end: 23 November 2017 17:18
Location: Waldport, 44.4270°N, 124.0680°W

Satellite Date Start Highest point End Downlink Frequencies (MHz)
Time Altitude Azimuth
XW-2C 22 Nov 17:27:03 17:30:46 78° 75° (ENE) 17:34:32 145.795 - 145.815
LilacSat-2 22 Nov 17:31:10 17:34:55 86° 257° (WSW) 17:38:43 437.200
XW-2F 22 Nov 17:36:09 17:39:51 87° 254° (WSW) 17:43:37 145.980 - 146.000
CUBEBUG 2 22 Nov 17:47:23 17:50:48 21° 66° (ENE) 17:54:09 437.445
KAITUO 1B 22 Nov 18:01:10 18:04:46 54° 260° (W) 18:08:25 145.475/437.950
NO-84 22 Nov 18:01:26 18:04:21 19° 356° (N) 18:07:22 435.350 FM
KKS-1 22 Nov 18:03:30 18:07:54 58° 288° (WNW) 18:12:15 437.445
XW-2A 22 Nov 18:06:44 18:08:06 12° 65° (ENE) 18:09:29 145.665 - 145.685
CUTE 1.7 + AOD 2 22 Nov 18:08:29 18:12:34 53° 73° (ENE) 18:16:41 437.475
DOVE 4 22 Nov 18:11:08 18:12:54 12° 275° (W) 18:14:41 437.250
CUTE-I 22 Nov 18:16:12 18:21:22 47° 261° (W) 18:26:34 437.470
CUBESAT XI-V 22 Nov 18:18:57 18:20:58 13° 301° (WNW) 18:22:59 437.345
XW-2D 22 Nov 18:21:26 18:24:25 22° 266° (W) 18:27:25 145.860 - 145.880
STARS 22 Nov 18:22:42 18:27:07 88° 280° (W) 18:31:29 437.465
ZACube-1 22 Nov 18:27:40 18:30:23 17° 64° (ENE) 18:33:04 437.345
YUBILEINY 22 Nov 18:31:03 18:37:55 26° 280° (W) 18:44:46 435.215
SEEDS 22 Nov 18:35:29 18:39:36 64° 74° (ENE) 18:43:45 437.485
XW-2B 22 Nov 18:37:03 18:39:26 16° 268° (W) 18:41:49 145.730 - 145.750
AAUSAT CUBESAT 2 22 Nov 18:37:27 18:41:03 30° 69° (ENE) 18:44:41 437.432
RS-15 22 Nov 18:39:34 18:51:45 71° 117° (ESE) 19:03:51 29.354- 29.394
UWE-3 22 Nov 18:39:43 18:43:50 40° 71° (ENE) 18:47:52 435.000/436.395/437.385
NUDT-PHONESAT 22 Nov 18:44:01 18:46:34 18° 267° (W) 18:49:09 437.300
HO-68 22 Nov 18:51:38 18:58:44 63° 257° (WSW) 19:05:55 435.675
AO-73 22 Nov 19:15:58 19:20:01 44° 72° (ENE) 19:24:03 145.935
CUBEBUG 2 22 Nov 19:22:50 19:27:10 42° 262° (W) 19:31:24 437.445
Oscar 11 22 Nov 19:30:18 19:34:22 43° 71° (ENE) 19:38:27 .
XW-2A 22 Nov 19:37:17 19:40:26 41° 261° (W) 19:43:36 145.665 - 145.685
NO-84 22 Nov 19:39:21 19:42:48 25° 17° (NNE) 19:46:21 435.350 FM
nSIGHT-1 22 Nov 19:42:59 19:45:22 19° 135° (SE) 19:47:44 .
CUTE 1.7 + AOD 2 22 Nov 19:46:24 19:48:43 14° 270° (W) 19:51:03 437.475
STRAND 1 22 Nov 19:53:58 19:59:08 81° 105° (ESE) 20:04:14 437.568
STARS 22 Nov 20:01:48 20:02:43 11° 302° (WNW) 20:03:38 437.465
ZACube-1 22 Nov 20:02:06 20:06:17 50° 261° (W) 20:10:25 437.345
FO-29 22 Nov 20:03:40 20:10:46 36° 93° (E) 20:17:25 435.910
AAUSAT CUBESAT 2 22 Nov 20:13:05 20:16:29 25° 266° (W) 20:19:55 437.432
SEEDS 22 Nov 20:14:10 20:15:43 12° 271° (W) 20:17:15 437.485
UWE-3 22 Nov 20:17:06 20:20:24 20° 267° (W) 20:23:40 435.000/436.395/437.385
DELFI C3 22 Nov 20:25:57 20:29:35 35° 71° (ENE) 20:33:15 145.870
ISS 22 Nov 20:32:01 20:35:09 43° 142° (SE) 20:38:17 437.550
HO-68 22 Nov 20:47:16 20:47:52 10° 276° (W) 20:48:29 435.675
RS-15 22 Nov 20:53:24 21:05:08 46° 323° (NW) 21:16:42 29.354- 29.394
AO-73 22 Nov 20:53:38 20:56:28 17° 268° (W) 20:59:17 145.935
EO-88 22 Nov 21:02:24 21:05:50 43° 73° (ENE) 21:09:18 145.990 - 145.960
Oscar 11 22 Nov 21:07:44 21:10:42 18° 268° (W) 21:13:42 .
Max Valier Satellite 22 Nov 21:08:16 21:11:54 76° 76° (ENE) 21:15:34 145.860
NO-84 22 Nov 21:16:27 21:20:43 76° 37° (NE) 21:24:59 435.350 FM
nSIGHT-1 22 Nov 21:18:08 21:21:19 62° 332° (NNW) 21:24:31 .
LO-87 22 Nov 21:23:39 21:24:27 11° 63° (ENE) 21:25:16 145.935 - 145.965
STRAND 1 22 Nov 21:34:47 21:37:38 15° 302° (WNW) 21:40:28 437.568
SO-50 22 Nov 21:35:40 21:40:05 66° 122° (ESE) 21:44:33 436.795
O/OREOS (USA 219) 22 Nov 21:48:10 21:51:41 21° 53° (NE) 21:55:10 437.305
FO-29 22 Nov 21:48:23 21:55:59 54° 293° (WNW) 22:03:09 435.910
UNISAT 6 22 Nov 21:54:07 21:58:18 51° 99° (E) 22:02:27 437.425
TIGRISAT 22 Nov 21:57:56 22:02:07 51° 100° (E) 22:06:14 435.000
DELFI C3 22 Nov 22:01:33 22:04:26 19° 267° (W) 22:07:21 145.870
ISS 22 Nov 22:08:37 22:11:41 36° 340° (NNW) 22:14:45 437.550
PRISM 22 Nov 22:18:22 22:22:06 31° 97° (E) 22:25:48 437.425
ESTCUBE 1 22 Nov 22:35:24 22:39:46 57° 73° (ENE) 22:44:12 437.505/2401.250
EO-88 22 Nov 22:37:59 22:39:43 13° 269° (W) 22:41:27 145.990 - 145.960
VELOX 1 22 Nov 22:49:25 22:51:53 15° 61° (ENE) 22:54:22 145.980
LO-87 22 Nov 22:53:47 22:57:22 60° 260° (W) 23:00:56 145.935 - 145.965
NO-84 22 Nov 22:54:39 22:57:40 19° 234° (SW) 23:00:39 435.350 FM
nSIGHT-1 22 Nov 22:55:20 22:57:59 23° 352° (N) 23:00:40 .
POLYITAN 1 22 Nov 23:11:04 23:13:13 14° 90° (E) 23:15:21 437.675
RS-15 22 Nov 23:11:36 23:21:42 28° 356° (N) 23:31:30 29.354- 29.394
SO-50 22 Nov 23:17:35 23:20:58 21° 322° (NW) 23:24:24 436.795
AIST 2D 22 Nov 23:17:36 23:21:01 47° 99° (E) 23:24:27 435.315
O/OREOS (USA 219) 22 Nov 23:26:59 23:31:21 47° 252° (WSW) 23:35:39 437.305
SPROUT 22 Nov 23:29:27 23:33:36 51° 72° (ENE) 23:37:46 437.525
UNISAT 6 22 Nov 23:31:57 23:34:37 16° 297° (WNW) 23:37:16 437.425
QB50P2 22 Nov 23:33:24 23:36:59 26° 95° (E) 23:40:32 145.880/145.840
PCSat 22 Nov 23:34:55 23:39:54 39° 112° (ESE) 23:44:55 145.827
TIGRISAT 22 Nov 23:35:45 23:38:24 16° 297° (WNW) 23:41:02 435.000
FO-29 22 Nov 23:35:53 23:39:15 13° 313° (NW) 23:42:35 435.910
ISS 22 Nov 23:46:08 23:48:47 22° 1° (N) 23:51:26 437.550
PRISM 22 Nov 23:53:50 23:57:13 24° 294° (WNW) 00:00:35 437.425
UKube-1 23 Nov 00:06:38 00:08:52 14° 61° (ENE) 00:11:07 .
50 SAT 23 Nov 00:07:33 00:09:41 17° 67° (ENE) 00:11:50 437.505
ESTCUBE 1 23 Nov 00:14:20 00:16:56 15° 270° (W) 00:19:34 437.505/2401.250
DUCHIFAT 1 23 Nov 00:19:21 00:23:29 58° 101° (E) 00:27:34 145.980
VELOX 1 23 Nov 00:23:23 00:27:48 65° 258° (WSW) 00:32:15 145.980
EO-79 23 Nov 00:29:14 00:33:26 83° 287° (WNW) 00:37:37 145.935-145.965
NANOSAT C BR1 23 Nov 00:31:04 00:35:17 89° 270° (W) 00:39:27 145.865
nSIGHT-1 23 Nov 00:32:08 00:34:54 26° 12° (NNE) 00:37:40 .
POLYITAN 1 23 Nov 00:45:13 00:49:20 55° 287° (WNW) 00:53:25 437.675
AIST 2D 23 Nov 00:52:17 00:53:47 12° 296° (WNW) 00:55:18 435.315
DX 1 23 Nov 01:02:18 01:06:40 78° 75° (ENE) 01:11:05 434.975-435.025
BUGSAT 1 23 Nov 01:03:56 01:07:47 43° 99° (E) 01:11:36 437.445
Oscar 19 23 Nov 01:07:06 01:11:30 28° 95° (E) 01:15:54 437.125/150
SPROUT 23 Nov 01:07:14 01:09:47 15° 269° (W) 01:12:20 437.525
QB50P2 23 Nov 01:09:07 01:12:43 28° 292° (WNW) 01:16:20 145.880/145.840
BEESAT 3 23 Nov 01:10:33 01:10:50 10° 108° (ESE) 01:11:07 437.485
PCSat 23 Nov 01:18:22 01:23:20 36° 312° (NW) 01:28:20 145.827
ISS 23 Nov 01:22:46 01:25:52 38° 20° (NNE) 01:28:57 437.550
RS-15 23 Nov 01:27:31 01:38:39 40° 30° (NNE) 01:49:13 29.354- 29.394
50 SAT 23 Nov 01:38:46 01:41:34 27° 263° (W) 01:44:23 437.505
UKube-1 23 Nov 01:40:03 01:44:21 66° 258° (WSW) 01:48:41 .
BEESAT 23 Nov 01:47:11 01:50:58 24° 64° (ENE) 01:54:46 436.000
Gurwin Techsat 1B 23 Nov 01:48:28 01:53:37 47° 99° (E) 01:58:44 435.225
MOZHAYETS 4 23 Nov 01:50:37 01:54:34 30° 68° (ENE) 01:58:32
DUCHIFAT 1 23 Nov 01:56:25 01:58:39 14° 298° (WNW) 02:00:53 145.980
ITUPSAT 1 23 Nov 01:57:56 02:02:03 29° 66° (ENE) 02:06:10 437.325
M-CUBED/EXP-1 PRIME 23 Nov 02:02:55 02:05:06 13° 95° (E) 02:07:17 437.505
nSIGHT-1 23 Nov 02:08:14 02:11:27 90° 114° (ESE) 02:14:38 .
CUBESAT XI-V 23 Nov 02:10:08 02:12:02 12° 59° (ENE) 02:13:56 437.345
BEESAT 2 23 Nov 02:24:18 02:27:08 19° 112° (ESE) 02:29:59 435.950
BUGSAT 1 23 Nov 02:40:09 02:42:49 17° 296° (WNW) 02:45:27 437.445
DX 1 23 Nov 02:42:30 02:43:24 11° 272° (W) 02:44:17 434.975-435.025
BEESAT 3 23 Nov 02:43:44 02:47:43 82° 304° (NW) 02:51:45 437.485
Oscar 19 23 Nov 02:46:07 02:50:55 39° 292° (WNW) 02:55:42 437.125/150
AO-85 23 Nov 02:54:41 02:56:39 13° 109° (ESE) 02:58:38 145.980
AO-7 23 Nov 02:55:39 03:02:55 32° 96° (E) 03:10:08 .
ISS 23 Nov 02:59:17 03:02:21 39° 219° (SW) 03:05:25 437.550
ITAMSAT 1 23 Nov 03:04:34 03:08:26 21° 92° (E) 03:12:17 435.822/435.867
BEESAT 23 Nov 03:23:59 03:28:29 42° 261° (W) 03:33:02 436.000
MOZHAYETS 4 23 Nov 03:27:41 03:31:41 30° 265° (W) 03:35:41
KKS-1 23 Nov 03:27:54 03:30:57 18° 62° (ENE) 03:34:00 437.445
Gurwin Techsat 1B 23 Nov 03:28:59 03:33:17 25° 297° (WNW) 03:37:34 435.225
M-CUBED/EXP-1 PRIME 23 Nov 03:35:18 03:39:52 76° 290° (WNW) 03:44:30 437.505
ITUPSAT 1 23 Nov 03:35:27 03:39:46 33° 263° (W) 03:44:06 437.325
RS-15 23 Nov 03:40:37 03:52:33 84° 238° (WSW) 04:03:49 29.354- 29.394
CUBESAT XI-V 23 Nov 03:44:07 03:48:42 84° 256° (WSW) 03:53:22 437.345
YUBILEINY 23 Nov 03:44:11 03:48:58 16° 74° (ENE) 03:53:45 435.215
nSIGHT-1 23 Nov 03:45:48 03:47:13 12° 228° (SW) 03:48:37 .
STARS 23 Nov 03:47:23 03:49:05 12° 59° (ENE) 03:50:47 437.465
BEESAT 2 23 Nov 04:00:38 04:04:31 46° 310° (NW) 04:08:28 435.950
BEESAT 3 23 Nov 04:23:52 04:25:54 13° 325° (NW) 04:27:56 437.485
SO-50 23 Nov 04:25:33 04:28:43 18° 36° (NE) 04:31:55 436.795
DOVE 4 23 Nov 04:27:25 04:31:37 25° 92° (E) 04:35:37 437.250
AO-85 23 Nov 04:32:37 04:36:28 58° 309° (NW) 04:40:32 145.980
ITAMSAT 1 23 Nov 04:43:09 04:48:13 53° 290° (WNW) 04:53:15 435.822/435.867
AO-7 23 Nov 04:47:55 04:56:08 63° 295° (WNW) 05:04:19 .
KKS-1 23 Nov 05:02:44 05:07:06 51° 260° (W) 05:11:30 437.445
M-CUBED/EXP-1 PRIME 23 Nov 05:12:08 05:13:30 11° 307° (NW) 05:14:52 437.505
STARS 23 Nov 05:20:19 05:24:46 82° 258° (WSW) 05:29:13 437.465
KAITUO 1B 23 Nov 05:31:47 05:33:31 13° 91° (E) 05:35:14 145.475/437.950
STRAND 1 23 Nov 05:34:14 05:37:51 20° 61° (ENE) 05:41:28 437.568
YUBILEINY 23 Nov 05:35:28 05:44:12 78° 95° (E) 05:53:02 435.215
XW-2D 23 Nov 05:51:17 05:54:41 30° 96° (E) 05:58:06 145.860 - 145.880
RS-15 23 Nov 05:55:00 06:03:02 22° 262° (W) 06:10:52 29.354- 29.394
DOVE 4 23 Nov 06:04:34 06:09:28 43° 290° (WNW) 06:14:07 437.250
SO-50 23 Nov 06:05:08 06:09:49 88° 227° (SW) 06:14:31 436.795
XW-2B 23 Nov 06:06:00 06:09:41 43° 99° (E) 06:13:20 145.730 - 145.750
NUDT-PHONESAT 23 Nov 06:10:59 06:14:23 34° 97° (E) 06:17:48 437.300
AO-85 23 Nov 06:16:37 06:17:50 11° 330° (NNW) 06:19:04 145.980
HO-68 23 Nov 06:18:12 06:23:51 24° 92° (E) 06:29:26 435.675
FO-29 23 Nov 06:18:31 06:23:28 21° 53° (NE) 06:28:42 435.910
CUTE-I 23 Nov 06:31:13 06:36:33 61° 102° (ESE) 06:41:49 437.470
XW-2C 23 Nov 06:31:39 06:35:30 88° 275° (W) 06:39:19 145.795 - 145.815
LilacSat-2 23 Nov 06:36:35 06:40:26 71° 284° (WNW) 06:44:16 437.200
PCSat 23 Nov 06:39:04 06:41:09 12° 29° (NNE) 06:43:13 145.827
XW-2F 23 Nov 06:40:11 06:43:59 75° 285° (WNW) 06:47:47 145.980 - 146.000
AO-7 23 Nov 06:42:30 06:47:18 17° 317° (NW) 06:52:07 .
KAITUO 1B 23 Nov 07:04:06 07:07:46 48° 286° (WNW) 07:11:24 145.475/437.950
STRAND 1 23 Nov 07:11:28 07:16:34 61° 259° (WSW) 07:21:41 437.568
CUBEBUG 2 23 Nov 07:11:50 07:15:37 33° 96° (E) 07:19:21 437.445
XW-2D 23 Nov 07:25:47 07:28:41 21° 293° (WNW) 07:31:35 145.860 - 145.880
CUTE 1.7 + AOD 2 23 Nov 07:26:59 07:31:17 86° 100° (E) 07:35:34 437.475
YUBILEINY 23 Nov 07:35:04 07:42:01 25° 297° (WNW) 07:49:02 435.215
XW-2B 23 Nov 07:41:12 07:43:30 15° 295° (WNW) 07:45:48 145.730 - 145.750
NUDT-PHONESAT 23 Nov 07:45:25 07:48:00 18° 294° (WNW) 07:50:34 437.300
SO-50 23 Nov 07:48:09 07:49:33 11° 253° (WSW) 07:50:58 436.795
ZACube-1 23 Nov 07:48:43 07:52:11 25° 95° (E) 07:55:39 437.345
AAUSAT CUBESAT 2 23 Nov 07:52:23 07:56:24 43° 98° (E) 08:00:24 437.432
SEEDS 23 Nov 07:52:49 07:57:05 81° 284° (WNW) 08:01:19 437.485
FO-29 23 Nov 08:00:34 08:07:20 88° 78° (ENE) 08:14:59 435.910
UWE-3 23 Nov 08:03:23 08:07:32 70° 101° (E) 08:11:40 435.000/436.395/437.385
HO-68 23 Nov 08:04:59 08:12:08 69° 291° (WNW) 08:19:14 435.675
CUTE-I 23 Nov 08:12:13 08:16:07 21° 299° (WNW) 08:19:59 437.470
PCSat 23 Nov 08:20:43 08:25:57 47° 52° (NE) 08:31:10 145.827
XW-2A 23 Nov 08:29:19 08:32:35 51° 287° (WNW) 08:35:52 145.665 - 145.685
AO-73 23 Nov 08:37:45 08:41:54 77° 101° (E) 08:46:05 145.935
CUBEBUG 2 23 Nov 08:48:48 08:52:04 22° 294° (WNW) 08:55:18 437.445
Oscar 11 23 Nov 08:51:22 08:55:43 73° 102° (ESE) 09:00:02 .
UNISAT 6 23 Nov 08:53:57 08:58:24 56° 73° (ENE) 09:02:46 437.425
TIGRISAT 23 Nov 08:57:37 09:02:03 56° 73° (ENE) 09:06:25 435.000
CUTE 1.7 + AOD 2 23 Nov 09:05:30 09:06:26 11° 300° (WNW) 09:07:21 437.475
PRISM 23 Nov 09:08:57 09:12:30 28° 67° (ENE) 09:16:04 437.425
BEESAT 3 23 Nov 09:22:24 09:24:41 15° 37° (NE) 09:26:58 437.485
ZACube-1 23 Nov 09:24:51 09:28:27 29° 291° (WNW) 09:32:04 437.345
AAUSAT CUBESAT 2 23 Nov 09:28:38 09:31:32 18° 295° (WNW) 09:34:26 437.432
DELFI C3 23 Nov 09:35:13 09:39:05 45° 99° (E) 09:42:54 145.870
UWE-3 23 Nov 09:41:52 09:43:27 12° 299° (WNW) 09:45:01 435.000/436.395/437.385
FO-29 23 Nov 09:48:54 09:53:27 18° 276° (W) 09:58:19 435.910
AIST 2D 23 Nov 09:53:34 09:56:16 22° 69° (ENE) 09:59:01 435.315
HO-68 23 Nov 09:54:39 09:58:37 16° 311° (NW) 10:02:33 435.675
EO-88 23 Nov 10:02:27 10:05:59 44° 99° (E) 10:09:30 145.990 - 145.960
PCSat 23 Nov 10:04:32 10:09:07 28° 251° (WSW) 10:13:41 145.827
POLYITAN 1 23 Nov 10:05:25 10:07:38 14° 62° (ENE) 10:09:52 437.675
FALCONSAT 3 23 Nov 10:09:15 10:11:54 19° 173° (S) 10:14:34 435.103
Max Valier Satellite 23 Nov 10:09:52 10:13:33 84° 102° (ESE) 10:17:14 145.860
AO-73 23 Nov 10:16:23 10:17:32 11° 300° (WNW) 10:18:42 145.935
QB50P2 23 Nov 10:27:27 10:30:56 25° 67° (ENE) 10:34:26 145.880/145.840
ESTCUBE 1 23 Nov 10:28:47 10:29:42 11° 88° (E) 10:30:38 437.505/2401.250
Oscar 11 23 Nov 10:29:22 10:31:15 13° 299° (WNW) 10:33:09 .
UNISAT 6 23 Nov 10:32:41 10:35:25 16° 269° (W) 10:38:07 437.425
TIGRISAT 23 Nov 10:36:20 10:39:03 16° 269° (W) 10:41:45 435.000
BEESAT 2 23 Nov 10:39:16 10:42:31 23° 42° (NE) 10:45:44 435.950
PRISM 23 Nov 10:44:13 10:47:42 26° 264° (W) 10:51:15 437.425
BEESAT 3 23 Nov 10:58:48 11:02:47 84° 236° (WSW) 11:06:40 437.485
DELFI C3 23 Nov 11:10:56 11:13:27 16° 296° (WNW) 11:15:58 145.870
DUCHIFAT 1 23 Nov 11:12:11 11:16:16 52° 73° (ENE) 11:20:22 145.980
AO-85 23 Nov 11:21:18 11:25:18 28° 44° (NE) 11:29:32 145.980
EO-79 23 Nov 11:22:36 11:26:51 88° 65° (ENE) 11:31:06 145.935-145.965
NANOSAT C BR1 23 Nov 11:24:06 11:28:19 82° 75° (ENE) 11:32:34 145.865
AIST 2D 23 Nov 11:26:32 11:29:21 23° 265° (W) 11:32:12 435.315
Gurwin Techsat 1B 23 Nov 11:34:38 11:37:17 14° 57° (ENE) 11:39:56 435.225
EO-88 23 Nov 11:37:19 11:39:15 14° 296° (WNW) 11:41:11 145.990 - 145.960
POLYITAN 1 23 Nov 11:38:44 11:42:56 62° 259° (W) 11:47:08 437.675
FALCONSAT 3 23 Nov 11:47:44 11:50:21 18° 188° (S) 11:52:58 435.103
LO-87 23 Nov 11:52:01 11:55:32 61° 286° (WNW) 11:59:00 145.935 - 145.965
BUGSAT 1 23 Nov 11:54:44 11:58:36 38° 70° (ENE) 12:02:28 437.445
ESTCUBE 1 23 Nov 12:02:31 12:07:05 82° 284° (WNW) 12:11:37 437.505/2401.250
QB50P2 23 Nov 12:02:51 12:06:36 30° 264° (W) 12:10:23 145.880/145.840
O/OREOS (USA 219) 23 Nov 12:03:13 12:06:04 16° 99° (E) 12:08:54 437.305
AO-7 23 Nov 12:09:33 12:13:15 14° 40° (NE) 12:16:56 .
VELOX 1 23 Nov 12:12:16 12:15:38 21° 93° (E) 12:18:58 145.980
BEESAT 2 23 Nov 12:16:35 12:20:26 44° 242° (WSW) 12:24:13 435.950
Oscar 19 23 Nov 12:25:22 12:30:15 48° 70° (ENE) 12:35:10 437.125/150
SPROUT 23 Nov 12:48:48 12:53:05 80° 103° (ESE) 12:57:18 437.525
M-CUBED/EXP-1 PRIME 23 Nov 12:49:46 12:52:16 17° 57° (ENE) 12:54:54 437.505
DUCHIFAT 1 23 Nov 12:49:50 12:52:13 15° 269° (W) 12:54:37 145.980
DX 1 23 Nov 12:50:53 12:52:28 12° 89° (E) 12:54:03 434.975-435.025
50 SAT 23 Nov 12:55:52 12:56:29 10° 91° (E) 12:57:05 437.505
AO-85 23 Nov 13:01:22 13:05:54 47° 241° (WSW) 13:10:44 145.980
Gurwin Techsat 1B 23 Nov 13:11:06 13:16:26 88° 76° (ENE) 13:21:48 435.225
UKube-1 23 Nov 13:26:11 13:29:06 18° 92° (E) 13:32:01 .
BUGSAT 1 23 Nov 13:31:01 13:34:04 20° 267° (W) 13:37:08 437.445
O/OREOS (USA 219) 23 Nov 13:40:28 13:44:59 56° 297° (WNW) 13:49:33 437.305
ESTCUBE 1 23 Nov 13:42:28 13:43:06 10° 302° (WNW) 13:43:44 437.505/2401.250
VELOX 1 23 Nov 13:48:02 13:52:14 41° 290° (WNW) 13:56:23 145.980
AO-7 23 Nov 13:56:13 14:04:06 52° 62° (ENE) 14:12:03 .
Oscar 19 23 Nov 14:05:50 14:09:48 22° 267° (W) 14:13:48 437.125/150
NO-84 23 Nov 14:09:29 14:12:45 34° 132° (SE) 14:16:18 435.350 FM
M-CUBED/EXP-1 PRIME 23 Nov 14:22:50 14:26:18 42° 257° (WSW) 14:30:03 437.505
ITAMSAT 1 23 Nov 14:23:43 14:28:31 39° 67° (ENE) 14:33:21 435.822/435.867
DX 1 23 Nov 14:24:44 14:29:07 71° 286° (WNW) 14:33:28 434.975-435.025
50 SAT 23 Nov 14:25:43 14:28:47 41° 288° (WNW) 14:31:48 437.505
SPROUT 23 Nov 14:26:59 14:28:19 11° 300° (WNW) 14:29:40 437.525
Gurwin Techsat 1B 23 Nov 14:54:54 14:57:05 12° 272° (W) 14:59:17 435.225
UKube-1 23 Nov 15:01:12 15:05:21 46° 290° (WNW) 15:09:29 .
MOZHAYETS 4 23 Nov 15:20:03 15:24:34 54° 100° (E) 15:29:03
BEESAT 23 Nov 15:22:01 15:26:32 41° 99° (E) 15:31:01 436.000
ITUPSAT 1 23 Nov 15:33:31 15:38:11 53° 100° (E) 15:42:49 437.325
DOVE 4 23 Nov 15:33:35 15:38:01 30° 66° (ENE) 15:42:36 437.250
CUBESAT XI-V 23 Nov 15:39:26 15:43:04 22° 93° (E) 15:46:41 437.345
YUBILEINY 23 Nov 15:43:46 15:52:06 43° 71° (ENE) 16:00:21 435.215
NO-84 23 Nov 15:46:29 15:50:02 40° 332° (NNW) 15:53:52 435.350 FM
AO-7 23 Nov 15:49:25 15:57:02 40° 262° (W) 16:04:44 .
RS-15 23 Nov 16:02:42 16:06:19 12° 91° (E) 16:09:55 29.354- 29.394
ITAMSAT 1 23 Nov 16:03:31 16:08:03 29° 265° (W) 16:12:36 435.822/435.867
CUTE-I 23 Nov 16:17:02 16:20:34 18° 59° (ENE) 16:24:06 437.470
XW-2D 23 Nov 16:34:26 16:37:09 19° 66° (ENE) 16:39:53 145.860 - 145.880
XW-2B 23 Nov 16:48:51 16:52:00 26° 69° (ENE) 16:55:10 145.730 - 145.750
HO-68 23 Nov 16:49:24 16:54:48 24° 55° (NE) 17:00:14 435.675
NUDT-PHONESAT 23 Nov 16:51:52 16:54:34 20° 67° (ENE) 16:57:17 437.300
KKS-1 23 Nov 16:52:12 16:55:56 26° 95° (E) 16:59:38 437.445
MOZHAYETS 4 23 Nov 16:58:16 17:01:17 18° 297° (WNW) 17:04:20
BEESAT 23 Nov 17:00:17 17:04:04 24° 296° (WNW) 17:07:50 436.000
STARS 23 Nov 17:09:09 17:11:48 16° 91° (E) 17:14:25 437.465
